Lapse_Rate
4.2 4.3 6.1 5.9 5.9 6.1 6.1 6.1 6.1 6.2 6.1 5.8 5.9 6.2 6.3 6.1 6.1 6.0 6.1 6.2 5.9 6.2 6.2 6.2 6.3 6.4 6.5 6.5 6.4 6.4 6.6 6.6 6.4 6.3 6.4 6.4 6.3 6.4 6.2 6.0 5.8 5.7 6.2
3.9 5.0 5.4 5.9 5.8 5.9 5.9 6.1 6.1 5.9 6.2 6.1 6.0 6.0 6.1 6.1 6.2 6.4 6.3 6.1 6.3 6.6 6.6 6.4 6.3 6.2 5.9 6.1 6.2 6.3 6.2 6.5 6.7 6.5 6.4 6.4 6.2 6.4 6.4 6.4 6.2 6.9 6.6
4.2 5.2 5.4 5.5 5.8 5.7 5.8 6.0 6.0 6.3 6.0 5.9 6.0 6.0 5.9 5.9 6.4 6.4 6.1 6.2 6.2 6.0 6.4 6.8 7.1 6.0 5.9 5.9 6.1 6.6 6.6 6.6 7.0 6.9 6.8 5.8 6.3 6.4 6.3 6.4 6.3 6.5 6.5
4.2 4.8 5.1 5.4 5.6 5.6 6.1 5.9 5.9 5.7 5.7 5.7 5.7 5.7 5.9 5.9 6.0 6.2 6.2 6.0 5.8 6.2 6.8 6.7 6.7 6.4 6.2 6.1 6.2 6.4 6.7 7.4 6.6 6.4 5.3 5.9 6.9 6.6 6.2 6.3 6.2 6.5 6.3
4.0 4.6 4.9 5.2 6.0 5.7 5.9 5.3 5.4 5.4 5.8 5.7 5.8 6.0 6.0 5.9 6.1 6.1 6.1 5.9 6.3 6.3 6.4 6.4 6.6 6.4 6.2 6.4 6.7 6.9 6.7 6.6 6.5 5.3 4.7 5.0 5.8 5.9 5.8 5.7 6.0 6.1 5.9
3.1 4.2 5.2 5.5 5.5 5.4 5.3 5.4 5.4 5.7 6.9 6.0 6.7 6.4 5.9 6.1 6.4 6.1 6.6 6.2 6.6 6.3 6.1 6.1 6.2 6.4 6.5 6.3 6.4 6.8 6.7 6.9 7.1 5.8 5.2 4.9 5.5 6.0 6.2 6.3 6.2 5.7 6.0
3.0 4.2 5.2 5.4 5.3 5.2 5.3 5.8 6.0 5.7 5.6 5.7 5.7 5.8 6.1 6.4 6.6 6.5 6.9 7.1 6.4 6.3 6.1 5.9 6.2 6.2 6.2 6.4 6.5 6.7 6.9 7.1 6.0 5.0 4.9 5.0 5.5 6.3 6.2 6.3 6.4 6.1 6.0
3.1 3.9 4.9 5.6 5.4 5.3 5.6 5.9 5.8 5.6 5.6 5.7 5.8 6.0 6.1 6.4 6.6 6.6 6.2 6.1 5.9 6.0 6.6 6.2 6.0 6.1 6.2 6.3 6.7 6.7 6.7 6.4 5.6 4.9 5.0 5.0 5.3 6.2 6.4 6.4 6.3 5.7 6.0
3.6 3.3 4.3 5.4 5.6 5.4 5.4 5.7 5.4 5.4 5.5 5.6 6.0 5.8 5.8 5.9 6.2 6.1 6.1 6.2 6.4 6.4 6.0 6.0 6.1 5.7 5.7 5.7 6.3 6.4 6.5 6.2 5.2 5.0 5.1 4.8 5.4 6.2 6.5 6.1 5.7 5.7 5.7
3.2 3.0 2.7 4.1 5.3 5.0 5.2 5.8 6.3 5.5 5.4 5.6 5.6 5.7 5.7 5.8 5.9 6.0 5.9 6.3 6.6 6.6 6.7 6.2 5.9 5.9 5.9 5.9 5.8 6.2 6.4 6.3 5.4 5.2 5.2 5.1 5.3 5.9 6.4 6.1 5.8 5.5 5.5
3.1 2.3 2.3 2.6 3.5 4.0 4.5 6.3 5.7 5.4 5.5 5.6 5.7 5.8 5.7 5.4 5.7 5.7 6.2 6.6 6.9 7.1 6.9 6.6 6.4 6.0 5.7 5.9 6.0 6.2 6.1 4.7 4.8 4.6 4.6 5.3 5.4 5.8 6.2 6.0 6.0 5.7 5.4
2.6 2.0 1.9 1.8 2.3 3.0 4.7 4.4 4.3 4.4 4.5 4.4 4.4 4.7 4.7 4.5 4.7 5.2 5.5 6.6 7.2 7.2 7.4 7.2 6.7 6.6 6.5 5.5 5.2 5.9 5.2 4.5 4.4 4.5 4.5 4.9 5.8 6.3 6.3 6.1 5.8 5.9 5.5
1.6 2.2 1.7 1.6 2.0 2.1 3.2 2.8 2.5 2.6 2.9 3.2 3.7 3.5 3.5 3.7 3.8 4.6 4.7 5.4 6.2 6.4 6.8 7.1 6.8 6.2 5.9 5.0 4.7 4.5 4.2 4.2 4.1 4.6 5.4 5.2 5.8 6.9 6.9 6.0 5.7 5.9 5.9
1.9 1.6 1.5 1.5 1.5 1.3 2.4 2.4 2.5 1.8 2.3 2.4 3.0 3.3 2.7 3.1 3.1 3.5 3.6 3.9 4.1 4.5 4.4 5.0 4.7 5.2 4.6 5.1 5.4 4.6 4.5 3.8 3.8 3.9 4.6 5.4 5.9 6.6 7.2 6.7 5.9 5.9 5.9
2.3 2.3 1.8 1.7 1.6 1.8 2.0 2.3 1.9 2.0 2.6 2.9 3.0 3.2 3.2 2.5 3.1 3.0 3.0 3.1 3.0 4.0 3.7 3.5 3.5 4.0 4.4 4.7 4.9 4.6 5.2 4.0 4.0 3.7 4.2 4.9 6.1 6.4 6.4 7.0 6.4 5.6 5.8
3.3 2.7 2.8 2.5 2.5 2.7 2.3 1.4 2.0 2.5 3.2 2.9 3.1 3.1 3.4 3.1 2.7 2.7 2.8 3.0 2.8 2.7 3.6 3.3 3.2 3.0 3.2 4.0 4.6 5.2 4.5 4.7 4.2 3.9 3.9 4.2 5.7 6.2 6.0 6.6 6.8 6.4 6.4
4.8 4.5 3.2 2.9 3.2 2.5 2.7 2.0 2.7 3.2 3.8 3.2 2.9 3.4 3.4 3.2 2.7 3.0 2.5 2.5 2.8 2.9 2.9 3.1 3.1 3.3 3.2 3.6 3.7 4.5 4.5 4.9 4.1 3.8 3.7 3.9 4.8 6.5 6.6 6.6 6.5 6.4 6.5
5.3 4.1 3.8 4.5 3.6 3.3 3.2 2.7 3.4 3.7 3.9 3.2 3.2 2.9 3.2 3.0 3.2 2.3 2.3 2.5 2.5 2.8 2.8 2.2 2.7 3.0 2.9 2.4 3.3 3.3 4.1 5.1 4.5 3.8 3.5 4.5 4.8 5.4 6.0 6.6 6.6 6.0 6.3
3.6 3.5 1.5 2.6 2.5 2.9 2.0 2.7 3.4 4.3 3.5 3.7 3.6 2.9 3.3 2.9 3.4 3.0 2.1 2.5 2.4 2.8 2.6 3.0 3.1 3.1 2.8 2.7 2.7 2.5 3.0 3.5 4.5 5.0 3.8 4.2 4.9 5.2 4.6 5.3 6.7 6.2 6.6
1.8 1.4 2.4 2.7 3.0 2.4 2.0 2.6 2.7 2.8 3.2 2.9 2.9 3.0 3.6 3.1 3.6 2.0 1.7 2.1 3.0 3.6 3.3 3.0 3.4 2.6 2.8 2.7 3.8 4.1 3.8 4.0 4.0 3.5 3.5 4.7 4.7 5.0 4.9 5.4 5.7 6.7 6.6
1.5 1.2 1.3 2.2 2.3 2.0 2.5 3.2 2.9 3.2 3.1 2.1 2.4 3.4 3.6 3.5 3.5 3.2 2.5 2.6 3.3 3.8 3.7 3.1 3.5 3.8 3.5 3.4 4.3 4.0 3.6 3.4 3.5 3.5 3.5 3.3 4.5 5.0 4.8 4.8 4.9 5.4 5.9
1.3 0.7 1.3 2.1 2.2 2.2 2.2 2.1 2.7 3.2 2.8 1.9 2.3 2.2 3.2 3.7 4.0 3.9 3.5 3.7 3.7 3.8 3.5 3.5 3.9 4.3 3.3 3.6 5.0 4.7 5.3 4.1 3.4 3.7 3.6 3.4 3.0 3.5 4.7 4.3 4.6 4.7 4.9
1.2 0.2 0.5 1.2 1.8 2.3 2.6 2.0 2.6 2.1 2.1 2.4 2.7 2.7 2.5 3.9 4.2 4.2 4.0 3.4 3.5 2.9 3.3 4.0 4.1 4.2 4.1 3.6 4.0 5.1 5.7 5.5 4.1 3.3 2.9 3.3 2.8 2.1 2.8 3.3 3.7 4.4 3.7
1.6 0.6 0.5 0.8 1.2 1.9 2.2 2.7 3.7 2.7 3.7 3.1 2.7 2.5 2.6 3.4 4.2 4.0 4.3 3.5 3.8 3.2 4.0 4.2 4.6 4.2 4.3 4.8 3.9 4.4 4.6 4.9 6.2 5.5 3.6 3.4 2.6 2.1 2.2 2.5 3.3 3.5 4.4
2.2 1.4 1.1 1.3 1.1 2.0 2.5 2.8 2.7 3.5 3.0 3.0 2.7 3.0 2.5 2.3 3.9 4.5 4.4 4.3 4.3 3.8 4.1 4.2 4.1 3.9 4.0 4.4 5.0 5.2 4.9 4.8 4.9 5.5 6.1 5.4 3.5 2.9 2.3 2.5 3.0 3.3 3.4
2.3 1.5 1.7 1.5 1.1 1.7 2.7 3.2 3.5 3.8 3.8 3.4 2.9 2.5 2.6 2.7 2.9 3.5 3.8 3.8 4.0 3.8 3.9 3.8 3.8 3.8 3.8 4.0 4.3 4.8 4.9 5.4 5.2 5.1 5.6 5.5 3.9 2.8 3.3 3.3 3.2 2.9 3.1
Wind_Speed
7 11 16 17 16 16 16 17 17 18 19 20 19 18 17 17 16 16 16 14 11 10 10 10 10 9 9 9 8 9 10 12 14 14 13 12 11 11 13 12 12 11 14
11 13 20 18 17 15 16 15 16 17 17 17 18 18 16 15 15 14 14 13 12 11 10 10 11 10 10 11 11 11 10 11 12 13 12 11 10 9 12 12 10 11 12
13 15 19 18 17 16 16 16 15 15 17 16 15 15 15 14 14 13 13 13 13 12 11 10 12 11 11 10 10 12 11 11 12 10 10 8 7 10 10 10 10 10 11
14 16 17 19 17 17 15 16 15 14 14 15 14 13 13 12 13 13 11 12 12 11 11 10 10 10 10 10 10 10 10 12 12 10 7 6 8 10 9 10 9 9 10
11 17 17 19 17 18 16 15 16 14 14 13 13 13 12 12 12 12 11 10 10 11 10 9 9 9 9 9 10 10 9 9 10 8 5 5 9 9 9 10 10 9 8
8 16 20 21 19 18 16 15 15 14 14 13 11 12 10 10 12 11 9 9 10 9 10 9 8 7 7 8 10 9 6 5 7 6 5 6 7 10 11 11 10 9 8
8 13 18 20 19 18 17 15 15 15 14 13 13 11 11 10 10 9 10 9 9 8 8 9 9 8 7 5 6 5 3 2 3 7 11 12 11 12 12 11 11 10 9
10 11 15 18 18 18 17 15 15 15 14 14 13 11 12 12 11 11 10 9 8 8 8 8 8 8 7 5 4 3 0 4 3 8 11 12 12 13 13 11 11 11 10
11 9 10 13 17 17 16 16 15 15 13 12 13 13 11 11 11 11 11 10 10 9 8 7 7 7 7 6 4 3 1 3 7 7 6 10 11 12 11 13 13 12 10
8 6 6 10 12 12 13 15 16 15 14 12 12 11 11 11 11 11 11 11 11 9 9 9 9 10 9 8 6 5 3 3 4 8 8 12 13 13 11 12 12 12 11
6 4 5 6 8 10 9 13 14 14 14 14 14 13 12 11 11 10 11 9 9 10 10 10 11 11 11 11 10 7 6 4 4 5 9 11 15 14 12 12 12 12 12
9 7 6 6 7 10 9 9 12 12 12 13 12 12 12 13 12 11 10 10 11 10 10 12 13 12 13 12 11 10 6 6 6 7 8 13 17 15 14 14 14 14 14
14 10 10 8 10 9 9 9 8 10 7 10 12 12 12 11 10 10 11 11 10 10 9 11 11 11 11 10 10 10 9 9 8 10 10 11 19 18 18 17 16 16 15
14 15 13 11 8 9 9 7 8 6 7 8 12 13 9 6 7 7 8 10 9 10 10 11 9 12 11 13 12 10 10 10 10 13 14 14 19 21 20 19 18 17 17
14 14 14 12 10 9 5 6 7 7 8 10 12 14 12 8 4 6 7 8 9 10 8 6 8 7 8 9 11 9 9 10 11 12 15 15 18 22 22 20 20 20 19
10 12 12 12 11 9 7 5 5 7 12 10 10 13 14 12 9 5 4 6 5 7 10 9 9 4 5 6 6 10 9 10 13 13 13 15 18 24 22 22 21 21 21
12 8 9 12 10 9 9 6 7 10 9 8 9 14 15 13 8 8 4 5 8 10 10 9 8 6 4 4 7 5 8 10 9 12 13 13 15 25 27 23 23 25 23
9 15 14 11 10 10 9 5 6 8 7 9 10 9 14 15 16 9 6 6 7 7 4 3 4 5 6 5 6 6 6 7 7 10 11 13 13 14 18 26 26 28 26
15 14 8 10 10 10 7 5 5 6 5 7 6 8 12 13 11 7 3 3 6 3 3 4 5 6 4 4 6 5 5 6 7 7 8 12 13 15 15 18 26 28 30
9 8 9 10 10 8 5 3 3 4 4 3 5 6 10 7 6 6 4 4 7 3 0 3 7 3 3 4 5 6 6 7 6 6 7 11 14 17 18 17 17 23 29
6 7 7 8 7 5 2 3 2 3 2 2 3 4 5 4 4 4 2 2 3 3 4 3 2 2 2 2 3 4 6 9 10 8 7 8 10 15 16 18 17 16 19
12 8 5 7 7 5 3 2 1 1 1 1 2 5 5 3 1 1 1 1 3 1 3 3 2 2 2 2 2 3 3 2 6 9 8 9 11 8 9 16 16 17 17
9 10 8 5 6 5 5 2 2 3 1 1 1 2 2 4 3 2 3 1 2 2 3 2 3 3 2 3 5 3 3 3 2 1 6 6 6 6 7 6 13 16 17
10 6 7 7 8 6 7 4 5 2 2 1 1 1 2 5 4 1 2 2 2 2 3 3 3 3 2 5 2 6 7 5 3 3 2 3 4 6 7 5 7 11 14
10 9 7 7 7 5 5 5 4 3 3 1 1 4 4 4 3 4 4 3 3 3 3 4 5 4 1 3 4 5 5 7 8 7 5 3 1 3 4 5 6 5 12
9 9 8 8 7 7 6 5 7 6 4 3 4 4 4 3 3 4 5 4 2 3 4 4 3 4 3 3 4 5 5 3 2 4 5 5 4 3 3 4 4 5 10
Wind_Direction
169 165 151 148 141 133 126 117 114 114 118 116 119 121 124 122 124 129 131 132 129 132 129 128 125 119 111 106 105 99 105 114 116 116 119 124 123 122 113 111 111 113 112
143 157 150 150 144 138 130 122 118 117 121 120 120 122 124 125 125 133 137 137 136 139 130 131 124 122 120 122 124 119 119 123 125 125 128 128 127 122 115 116 117 115 116
141 155 151 152 147 143 136 129 128 126 130 128 123 123 125 129 141 134 132 141 142 132 131 135 128 128 126 123 124 127 131 135 130 123 125 125 141 134 127 124 122 121 121
141 149 155 154 152 145 145 136 132 135 129 133 131 127 126 132 137 144 136 136 133 134 140 136 135 125 129 137 138 133 135 135 129 119 105 123 131 147 139 134 123 123 118
137 146 159 155 151 150 148 137 134 138 140 135 136 141 138 137 133 141 137 138 137 142 142 137 133 133 135 142 130 133 137 152 139 131 109 111 133 146 143 139 145 133 125
127 146 159 158 155 156 146 145 139 144 137 143 142 132 135 141 144 141 140 144 151 157 152 143 139 143 143 145 133 132 132 139 175 180 187 166 150 156 155 154 149 145 147
137 151 159 162 160 158 152 152 149 148 146 146 144 146 145 149 147 151 151 161 162 166 164 155 152 149 152 141 128 134 151 220 195 185 182 168 171 169 165 165 156 156 158
145 151 161 167 163 161 159 158 152 156 161 159 152 159 156 161 166 161 167 171 178 177 188 170 173 165 162 161 143 161 103 34 152 160 160 171 181 171 174 164 163 158 167
148 149 165 171 170 167 165 163 164 165 165 159 161 167 171 173 176 179 181 181 184 192 196 198 205 201 192 194 182 175 215 75 122 141 165 182 192 189 179 175 172 172 171
150 157 157 167 171 168 174 178 174 169 172 172 174 179 183 186 193 194 196 196 191 199 205 208 216 231 230 225 215 206 210 150 175 186 199 196 197 193 192 190 184 179 182
159 165 160 160 159 168 185 188 182 185 183 184 187 191 194 199 205 210 218 207 206 213 215 219 223 231 242 251 250 233 222 197 185 192 206 209 199 197 200 203 200 193 190
176 181 177 170 172 174 191 210 193 198 197 195 197 205 195 209 212 211 221 224 222 223 235 235 237 238 243 246 259 261 254 216 212 224 227 223 211 205 205 207 205 203 198
178 179 185 184 183 183 200 199 211 211 204 211 213 215 216 221 228 230 228 233 233 245 248 254 250 255 251 249 249 250 254 256 233 234 241 241 223 211 211 209 207 209 211
183 187 186 186 186 196 203 190 207 209 206 215 225 226 223 231 229 229 225 232 236 253 256 246 244 250 261 253 243 248 247 239 239 236 234 238 223 214 220 211 208 215 215
186 191 191 184 190 197 201 191 199 208 213 216 222 228 214 233 238 226 230 220 226 241 240 235 236 242 250 249 246 239 245 237 231 225 234 231 227 216 216 217 213 213 219
190 200 184 192 192 191 199 192 206 211 225 219 224 227 221 221 235 223 241 245 233 237 248 237 242 230 233 232 245 239 243 239 235 222 225 234 234 219 217 223 223 215 221
192 194 211 193 191 194 199 196 199 219 220 229 224 225 226 226 227 224 225 240 235 221 236 246 245 244 240 229 236 239 243 248 231 236 223 219 231 232 223 228 228 227 219
180 170 196 196 192 196 203 198 206 227 234 224 226 211 221 224 226 224 234 242 233 222 246 238 255 259 242 228 238 234 237 244 224 219 224 228 224 230 235 237 234 225 222
177 188 180 185 180 193 191 189 204 211 230 234 224 203 221 221 230 231 244 243 211 215 233 245 258 241 245 248 252 249 232 233 239 220 214 214 221 226 232 240 235 227 226
178 168 169 185 173 164 167 182 214 198 185 210 211 209 218 215 245 250 267 224 188 179 273 229 243 225 249 251 254 255 248 244 230 214 210 216 217 221 223 227 232 233 228
150 135 162 161 157 142 154 178 210 203 178 209 205 173 249 260 324 316 333 169 219 189 237 306 265 263 272 231 263 249 248 235 231 223 219 215 223 224 223 217 218 223 230
170 157 173 176 162 173 163 169 109 182 252 167 221 242 222 241 250 251 301 205 196 254 299 291 290 301 285 195 247 263 286 299 242 235 223 219 223 220 220 216 212 216 222
174 175 169 197 196 180 176 106 82 36 334 37 225 239 240 187 201 231 319 334 337 295 304 303 262 219 269 270 216 236 286 247 304 239 234 231 224 210 219 215 214 221 216
194 171 158 177 199 195 172 162 172 174 240 232 252 250 149 169 206 278 269 179 21 323 315 293 280 250 219 298 278 239 243 242 271 306 277 238 205 218 210 207 219 216 226
174 186 177 179 192 202 180 183 150 174 199 20 55 67 66 120 124 60 69 49 30 6 322 303 301 306 251 302 296 300 263 238 231 240 255 276 326 233 220 218 216 229 219
167 164 169 179 191 188 187 168 173 178 161 105 88 92 80 82 70 54 49 36 22 2 347 331 331 351 331 290 281 287 313 285 240 217 227 247 247 267 245 251 232 226 217